TimeEDT,TemperatureF,Dew PointF,Humidity,Sea Level PressureIn,VisibilityMPH,Wind Direction,Wind SpeedMPH,Gust SpeedMPH,PrecipitationIn,Events,Conditions,WindDirDegrees,DateUTC
12:52 AM,62.1,53.1,72,29.95,10.0,SW,5.8,-,N/A,,Clear,230,2013-06-16 04:52:00
1:52 AM,55.9,52.0,87,29.94,10.0,Calm,Calm,-,N/A,,Clear,0,2013-06-16 05:52:00
2:52 AM,53.1,51.1,93,29.94,8.0,Calm,Calm,-,N/A,,Clear,0,2013-06-16 06:52:00
3:52 AM,51.1,48.9,92,29.94,7.0,Calm,Calm,-,N/A,,Clear,0,2013-06-16 07:52:00
4:43 AM,50.0,48.0,93,29.94,2.5,Calm,Calm,-,N/A,,Clear,0,2013-06-16 08:43:00
4:52 AM,50.0,48.9,96,29.94,5.0,Calm,Calm,-,N/A,,Clear,0,2013-06-16 08:52:00
4:59 AM,50.0,48.0,93,29.94,1.8,Calm,Calm,-,N/A,,Clear,0,2013-06-16 08:59:00
5:03 AM,50.0,48.0,93,29.94,0.8,Calm,Calm,-,N/A,,Clear,0,2013-06-16 09:03:00
5:13 AM,48.9,48.0,97,29.94,1.5,Calm,Calm,-,N/A,,Clear,0,2013-06-16 09:13:00
5:35 AM,50.0,48.0,93,29.94,0.8,Calm,Calm,-,N/A,,Clear,0,2013-06-16 09:35:00
5:44 AM,50.0,48.9,96,29.94,1.5,Calm,Calm,-,N/A,,Clear,0,2013-06-16 09:44:00
5:52 AM,51.1,50.0,96,29.94,3.0,Calm,Calm,-,N/A,,Clear,0,2013-06-16 09:52:00
6:52 AM,63.0,52.0,67,29.95,10.0,West,5.8,-,N/A,,Clear,260,2013-06-16 10:52:00
7:52 AM,68.0,52.0,56,29.95,10.0,WSW,6.9,-,N/A,,Clear,250,2013-06-16 11:52:00
8:52 AM,71.1,51.1,49,29.94,10.0,WSW,5.8,-,N/A,,Clear,250,2013-06-16 12:52:00
9:52 AM,73.9,52.0,46,29.94,10.0,WSW,6.9,-,N/A,,Clear,240,2013-06-16 13:52:00
10:52 AM,77.0,50.0,39,29.92,10.0,WSW,8.1,-,N/A,,Clear,250,2013-06-16 14:52:00
11:52 AM,78.1,52.0,40,29.89,10.0,SSW,10.4,17.3,N/A,,Clear,210,2013-06-16 15:52:00
12:52 PM,75.0,51.1,43,29.88,10.0,SSW,10.4,18.4,N/A,,Scattered Clouds,210,2013-06-16 16:52:00
1:52 PM,75.9,48.0,37,29.86,10.0,SW,12.7,19.6,N/A,,Mostly Cloudy,220,2013-06-16 17:52:00
2:52 PM,75.9,52.0,43,29.83,10.0,South,9.2,-,N/A,,Mostly Cloudy,190,2013-06-16 18:52:00
3:52 PM,73.9,54.0,50,29.81,10.0,SW,4.6,-,N/A,,Overcast,220,2013-06-16 19:52:00
4:52 PM,72.0,54.0,53,29.79,10.0,South,11.5,18.4,N/A,,Mostly Cloudy,190,2013-06-16 20:52:00
5:52 PM,71.1,60.1,68,29.76,10.0,SSW,9.2,19.6,N/A,,Mostly Cloudy,200,2013-06-16 21:52:00
6:52 PM,68.0,61.0,78,29.76,10.0,SSW,9.2,19.6,N/A,,Scattered Clouds,200,2013-06-16 22:52:00
7:52 PM,66.9,61.0,81,29.75,8.0,SSW,6.9,-,N/A,,Partly Cloudy,200,2013-06-16 23:52:00
8:52 PM,66.9,62.1,84,29.75,9.0,Variable,4.6,-,N/A,,Clear,0,2013-06-17 00:52:00
9:52 PM,66.0,62.1,87,29.77,8.0,SSW,3.5,-,N/A,,Clear,210,2013-06-17 01:52:00
10:52 PM,68.0,62.1,81,29.77,9.0,SW,5.8,-,N/A,,Overcast,220,2013-06-17 02:52:00
11:52 PM,68.0,62.1,81,29.78,9.0,WSW,4.6,-,N/A,,Clear,240,2013-06-17 03:52:00